Date String (YYYY-MM-DD hh:mm:ss) UTC,Instrument flags,Ambient pressure (hPa),Sample flow (lpm),Bypass flow (lpm),Sample temperature (°C),Ambient temperature (°C),ASC tube jacket temperature (°C),LED temperature (°C),Box temperature (°C),Sample RH (%),Span deviation,Mass concentration (μg/m³),Mass concentration (μg/m³),Mass concentration (μg/m³)
DateTimeUTC,F1_M11,P_M11,Q1_M11,Q2_M11,T1_M11,T2_M11,T3_M11,T4_M11,T5_M11,U1_M11,ZSPAN_M11,X2_M11,X0_M11,X1_M11
2022-03-14 18:00:00,,0830.4,5.01,0.00,25.6,24.9,00.0,34.4,27.5,10.1,0000.0,0001.99,0006.78,0001.20
2022-03-14 18:01:00,,0830.5,4.99,0.00,25.6,24.9,00.0,34.4,27.5,09.8,0000.0,0002.04,0006.98,0001.22
2022-03-14 18:02:00,,0830.4,5.01,0.00,25.6,24.9,00.0,34.5,27.5,09.5,0000.0,0002.11,0007.08,0001.26
2022-03-14 18:03:00,,0830.4,5.00,0.00,25.6,24.9,00.0,34.5,27.5,09.8,0000.0,0002.17,0007.29,0001.30
2022-03-14 18:04:00,,0830.4,5.00,0.00,25.6,24.9,00.0,34.5,27.5,09.9,0000.0,0002.27,0007.43,0001.33
2022-03-14 18:05:00,,0830.4,5.00,0.00,25.6,24.9,00.0,34.5,27.5,09.8,0000.0,0002.30,0007.29,0001.36
2022-03-14 18:06:00,,0830.4,4.99,0.00,25.7,24.9,00.0,34.5,27.5,09.9,0000.0,0002.36,0006.40,0001.39
2022-03-14 18:07:00,,0830.4,5.00,0.00,25.6,24.9,00.0,34.5,27.5,09.7,0000.0,0002.44,0006.63,0001.43
2022-03-14 18:08:00,,0830.4,5.01,0.00,25.6,24.9,00.0,34.5,27.5,09.8,0000.0,0002.50,0007.37,0001.46
2022-03-14 18:09:00,,0830.4,5.01,0.00,25.6,24.9,00.0,34.5,27.5,10.0,0000.0,0002.51,0007.07,0001.47
2022-03-14 18:10:00,,0830.5,4.99,0.00,25.7,24.9,00.0,34.5,27.5,09.7,0000.0,0002.44,0007.41,0001.47
2022-03-14 18:11:00,,0830.4,5.00,0.00,25.7,24.9,00.0,34.5,27.5,09.6,0000.0,0002.46,0007.18,0001.49
2022-03-14 18:12:00,,0830.5,5.00,0.00,25.7,24.9,00.0,34.5,27.5,09.7,0000.0,0002.45,0007.49,0001.49
2022-03-14 18:13:00,,0830.4,5.00,0.00,25.7,24.9,00.0,34.6,27.5,09.7,0000.0,0002.40,0007.35,0001.49
2022-03-14 18:14:00,,0830.4,4.98,0.00,25.7,24.9,00.0,34.6,27.5,09.5,0000.0,0002.44,0007.20,0001.49
2022-03-14 18:15:00,,0830.5,5.00,0.00,25.7,24.9,00.0,34.6,27.5,09.7,0000.0,0002.33,0006.91,0001.45
2022-03-14 18:16:00,,0830.5,5.00,0.00,25.7,24.9,00.0,34.6,27.4,09.3,0000.0,0002.28,0006.92,0001.44
2022-03-14 18:17:00,,0830.5,5.00,0.00,25.6,24.9,00.0,34.6,27.4,09.1,0000.0,0002.27,0007.52,0001.43
2022-03-14 18:18:00,,0830.5,5.00,0.00,25.6,24.9,00.0,34.6,27.4,09.3,0000.0,0002.21,0007.84,0001.40
2022-03-14 18:19:00,,0830.5,5.00,0.00,25.7,24.9,00.0,34.6,27.4,09.2,0000.0,0002.19,0007.91,0001.36
2022-03-14 18:20:00,,0830.5,5.01,0.00,25.7,24.9,00.0,34.6,27.4,09.6,0000.0,0002.16,0007.99,0001.33
2022-03-14 18:21:00,,0830.6,4.99,0.00,25.7,24.9,00.0,34.6,27.5,09.6,0000.0,0002.19,0007.85,0001.31
2022-03-14 18:22:00,,0830.5,5.01,0.00,25.7,24.9,00.0,34.6,27.5,09.3,0000.0,0002.15,0008.11,0001.28
2022-03-14 18:23:00,,0830.5,4.99,0.00,25.7,25.0,00.0,34.6,27.5,09.0,0000.0,0002.05,0007.68,0001.23
2022-03-14 18:24:00,,0830.4,5.01,0.00,25.7,25.0,00.0,34.6,27.5,08.9,0000.0,0002.00,0007.59,0001.21
2022-03-14 18:25:00,,0830.5,4.99,0.00,25.7,25.0,00.0,34.6,27.5,08.9,0000.0,0001.94,0007.55,0001.18
2022-03-14 18:26:00,,0830.5,5.01,0.00,25.7,25.0,00.0,34.6,27.5,09.3,0000.0,0002.00,0007.69,0001.18
2022-03-14 18:27:00,,0830.6,5.01,0.00,25.7,25.0,00.0,34.6,27.6,09.2,0000.0,0001.96,0007.56,0001.17
2022-03-14 18:28:00,,0830.5,4.99,0.00,25.7,25.0,00.0,34.6,27.5,09.2,0000.0,0001.94,0007.30,0001.18
2022-03-14 18:29:00,,0830.6,5.01,0.00,25.7,25.0,00.0,34.6,27.6,09.7,0000.0,0001.97,0007.23,0001.20
2022-03-14 18:30:00,,0830.5,4.99,0.00,25.7,25.0,00.0,34.6,27.6,09.5,0000.0,0002.01,0006.55,0001.22
2022-03-14 18:31:00,,0830.6,5.01,0.00,25.8,25.0,00.0,34.6,27.6,09.0,0000.0,0001.97,0005.85,0001.24
2022-03-14 18:32:00,,0830.5,4.98,0.00,25.8,25.1,00.0,34.6,27.6,09.1,0000.0,0001.95,0005.84,0001.25
2022-03-14 18:33:00,,0830.5,5.01,0.00,25.8,25.1,00.0,34.7,27.6,08.7,0000.0,0001.90,0005.45,0001.25
2022-03-14 18:34:00,,0830.5,4.99,0.00,25.8,25.1,00.0,34.7,27.7,08.4,0000.0,0001.92,0005.43,0001.26
2022-03-14 18:35:00,,0830.5,5.01,0.00,25.8,25.1,00.0,34.7,27.7,08.7,0000.0,0001.94,0005.47,0001.27
2022-03-14 18:36:00,,0830.5,4.99,0.00,25.9,25.2,00.0,34.7,27.7,08.8,0000.0,0001.92,0005.42,0001.27
2022-03-14 18:37:00,,0830.5,5.01,0.00,25.9,25.2,00.0,34.7,27.7,08.8,0000.0,0001.87,0005.12,0001.29
2022-03-14 18:38:00,,0830.5,4.99,0.00,25.9,25.2,00.0,34.7,27.8,08.7,0000.0,0001.93,0005.52,0001.31
2022-03-14 18:39:00,,0830.4,5.00,0.00,25.9,25.2,00.0,34.7,27.8,09.0,0000.0,0001.95,0006.23,0001.30
2022-03-14 18:40:00,,0830.5,5.00,0.00,26.0,25.3,00.0,34.8,27.8,09.1,0000.0,0001.90,0005.49,0001.30
2022-03-14 18:41:00,,0830.4,5.00,0.00,26.0,25.3,00.0,34.8,27.9,09.8,0000.0,0001.95,0005.58,0001.33
2022-03-14 18:42:00,,0830.4,5.00,0.00,26.0,25.3,00.0,34.8,27.9,10.3,0000.0,0002.03,0005.70,0001.38
2022-03-14 18:43:00,,0830.4,4.98,0.00,26.0,25.3,00.0,34.8,27.9,09.8,0000.0,0002.16,0005.41,0001.45
2022-03-14 18:44:00,,0830.4,5.00,0.00,26.0,25.3,00.0,34.8,27.9,09.6,0000.0,0002.29,0005.00,0001.53
2022-03-14 18:45:00,,0830.4,5.01,0.00,26.0,25.3,00.0,34.8,27.8,09.4,0000.0,0002.38,0005.24,0001.60
2022-03-14 18:46:00,,0830.3,4.99,0.00,26.0,25.3,00.0,34.9,27.8,09.4,0000.0,0002.48,0005.46,0001.67
2022-03-14 18:47:00,,0830.3,5.01,0.00,26.0,25.3,00.0,34.9,27.8,09.6,0000.0,0002.64,0005.68,0001.75
2022-03-14 18:48:00,,0830.4,4.99,0.00,26.0,25.2,00.0,34.9,27.7,09.4,0000.0,0002.77,0005.82,0001.82
2022-03-14 18:49:00,,0830.4,5.02,0.00,26.0,25.2,00.0,34.9,27.8,09.3,0000.0,0002.83,0006.03,0001.87
2022-03-14 18:50:00,,0830.4,4.99,0.00,26.0,25.2,00.0,34.9,27.8,09.5,0000.0,0002.88,0006.66,0001.91
2022-03-14 18:51:00,,0830.4,5.01,0.00,26.0,25.2,00.0,34.9,27.8,09.3,0000.0,0002.94,0007.31,0001.94
2022-03-14 18:52:00,,0830.4,4.99,0.00,26.0,25.3,00.0,34.9,27.8,09.1,0000.0,0002.91,0007.63,0001.94
2022-03-14 18:53:00,,0830.4,5.01,0.00,26.0,25.3,00.0,34.9,27.9,08.9,0000.0,0002.85,0007.57,0001.92
2022-03-14 18:54:00,,0830.3,4.98,0.00,26.0,25.3,00.0,34.9,27.9,09.4,0000.0,0002.74,0007.42,0001.90
2022-03-14 18:55:00,,0830.3,5.01,0.00,26.0,25.3,00.0,34.9,27.9,09.7,0000.0,0002.65,0007.45,0001.86
2022-03-14 18:56:00,,0830.3,4.99,0.00,26.0,25.3,00.0,34.9,27.9,09.3,0000.0,0002.64,0007.55,0001.85
2022-03-14 18:57:00,,0830.3,5.01,0.00,26.0,25.3,00.0,34.9,27.9,09.4,0000.0,0002.66,0007.53,0001.84
2022-03-14 18:58:00,,0830.3,5.00,0.00,26.1,25.4,00.0,34.9,27.9,09.0,0000.0,0002.62,0007.47,0001.85
2022-03-14 18:59:00,,0830.2,4.99,0.00,26.1,25.4,00.0,34.9,27.9,09.3,0000.0,0002.57,0007.44,0001.83
